User: anonymous   Login
Location: Unspecified
(0.0000°N, 0.0000°E)
Time: 07:05:07
(UTC+00:00)
Language:

ALSAT 1N - Orbit

View from above orbital plane
View from above orbital plane
View from above satellite
View from above satellite

Ground track
Ground track

The orbit data is extracted from the following two-line orbital elements,

1 41789U 16059G   18048.77292370  .00000069  00000-0  22184-4 0  9994
2 41789  98.1348 113.1502 0029826 102.3934 258.0605 14.64127134 74545
Epoch (UTC): 17 February 2018 18:33:00
Eccentricity: 0.0029826
inclination: 98.1348°
perigee height: 659 km
apogee height: 701 km
right ascension of ascending node: 113.1502°
argument of perigee: 102.3934°
revolutions per day: 14.64127134
mean anomaly at epoch: 258.0605°
orbit number at epoch: 7454

The dashed part of the orbit path shows where the satellite is in the earth's shadow,  

DLR